Year,Month,Day,Hour,Minute,Value (Times are PST for temperature in C)
2017,04,12,00,00,10.90
2017,04,12,00,01,10.90
2017,04,12,00,02,10.90
2017,04,12,00,03,10.90
2017,04,12,00,04,10.80
2017,04,12,00,05,10.80
2017,04,12,00,06,10.80
2017,04,12,00,07,10.80
2017,04,12,00,08,10.80
2017,04,12,00,09,10.80
2017,04,12,00,10,10.80
2017,04,12,00,11,10.80
2017,04,12,00,12,10.70
2017,04,12,00,13,10.70
2017,04,12,00,14,10.70
2017,04,12,00,15,10.70
2017,04,12,00,16,10.70
2017,04,12,00,17,10.70
2017,04,12,00,18,10.70
2017,04,12,00,19,10.70
2017,04,12,00,20,10.70
2017,04,12,00,21,10.70
2017,04,12,00,22,10.60
2017,04,12,00,23,10.60
2017,04,12,00,24,10.60
2017,04,12,00,25,10.60
2017,04,12,00,26,10.60
2017,04,12,00,27,10.60
2017,04,12,00,28,10.60
2017,04,12,00,29,10.60
2017,04,12,00,30,10.60
2017,04,12,00,31,10.60
2017,04,12,00,32,10.60
2017,04,12,00,33,10.60
2017,04,12,00,34,10.60
2017,04,12,00,35,10.60
2017,04,12,00,36,10.60
2017,04,12,00,37,10.60
2017,04,12,00,38,10.60
2017,04,12,00,39,10.60
2017,04,12,00,40,10.60
2017,04,12,00,41,10.60
2017,04,12,00,42,10.60
2017,04,12,00,43,10.60
2017,04,12,00,44,10.60
2017,04,12,00,45,10.60
2017,04,12,00,46,10.60
2017,04,12,00,47,10.60
2017,04,12,00,48,10.60
2017,04,12,00,49,10.60
2017,04,12,00,50,10.60
2017,04,12,00,51,10.60
2017,04,12,00,52,10.60
2017,04,12,00,53,10.60
2017,04,12,00,54,10.60
2017,04,12,00,55,10.60
2017,04,12,00,56,10.60
2017,04,12,00,57,10.60
2017,04,12,00,58,10.60
2017,04,12,00,59,10.60
2017,04,12,01,00,10.60
2017,04,12,01,01,10.60
2017,04,12,01,02,10.60
2017,04,12,01,03,10.60
2017,04,12,01,04,10.60
2017,04,12,01,05,10.60
2017,04,12,01,06,10.60
2017,04,12,01,07,10.60
2017,04,12,01,08,10.60
2017,04,12,01,09,10.60
2017,04,12,01,10,10.60
2017,04,12,01,11,10.60
2017,04,12,01,12,10.60
2017,04,12,01,13,10.60
2017,04,12,01,14,10.60
2017,04,12,01,15,10.60
2017,04,12,01,16,10.60
2017,04,12,01,17,10.60
2017,04,12,01,18,10.60
2017,04,12,01,19,10.50
2017,04,12,01,20,10.40
2017,04,12,01,21,10.40
2017,04,12,01,22,10.40
2017,04,12,01,23,10.40
2017,04,12,01,24,10.40
2017,04,12,01,25,10.40
2017,04,12,01,26,10.40
2017,04,12,01,27,10.40
2017,04,12,01,28,10.40
2017,04,12,01,29,10.40
2017,04,12,01,30,10.40
2017,04,12,01,31,10.40
2017,04,12,01,32,10.40
2017,04,12,01,33,10.40
2017,04,12,01,34,10.40
2017,04,12,01,35,10.40
2017,04,12,01,36,10.40
2017,04,12,01,37,10.40
2017,04,12,01,38,10.40
2017,04,12,01,39,10.40
2017,04,12,01,40,10.40
2017,04,12,01,41,10.30
2017,04,12,01,42,10.30
2017,04,12,01,43,10.30
2017,04,12,01,44,10.30
2017,04,12,01,45,10.30
2017,04,12,01,46,10.30
2017,04,12,01,47,10.30
2017,04,12,01,48,10.30
2017,04,12,01,49,10.30
2017,04,12,01,50,10.30
2017,04,12,01,51,10.30
2017,04,12,01,52,10.30
2017,04,12,01,53,10.30
2017,04,12,01,54,10.30
2017,04,12,01,55,10.30
2017,04,12,01,56,10.30
2017,04,12,01,57,10.40
2017,04,12,01,58,10.30
2017,04,12,01,59,10.30
2017,04,12,02,00,10.30
2017,04,12,02,01,10.30
2017,04,12,02,02,10.30
2017,04,12,02,03,10.30
2017,04,12,02,04,10.30
2017,04,12,02,05,10.30
2017,04,12,02,06,10.20
2017,04,12,02,07,10.20
2017,04,12,02,08,10.20
2017,04,12,02,09,10.20
2017,04,12,02,10,10.20
2017,04,12,02,11,10.20
2017,04,12,02,12,10.20
2017,04,12,02,13,10.20
2017,04,12,02,14,10.20
2017,04,12,02,15,10.20
2017,04,12,02,16,10.20
2017,04,12,02,17,10.20
2017,04,12,02,18,10.20
2017,04,12,02,19,10.20
2017,04,12,02,20,10.20
2017,04,12,02,21,10.20
2017,04,12,02,22,10.20
2017,04,12,02,23,10.20
2017,04,12,02,24,10.20
2017,04,12,02,25,10.20
2017,04,12,02,26,10.20
2017,04,12,02,27,10.20
2017,04,12,02,28,10.20
2017,04,12,02,29,10.20
2017,04,12,02,30,10.20
2017,04,12,02,31,10.20
2017,04,12,02,32,10.20
2017,04,12,02,33,10.20
2017,04,12,02,34,10.20
2017,04,12,02,35,10.20
2017,04,12,02,36,10.20
2017,04,12,02,37,10.20
2017,04,12,02,38,10.10
2017,04,12,02,39,10.10
2017,04,12,02,40,10.10
2017,04,12,02,41,10.10
2017,04,12,02,42,10.10
2017,04,12,02,43,10.10
2017,04,12,02,44,10.10
2017,04,12,02,45,10.10
2017,04,12,02,46,10.10
2017,04,12,02,47,10.10
2017,04,12,02,48,10.00
2017,04,12,02,49,9.90
2017,04,12,02,50,9.90
2017,04,12,02,51,9.90
2017,04,12,02,52,9.90
2017,04,12,02,53,9.90
2017,04,12,02,54,9.90
2017,04,12,02,55,9.90
2017,04,12,02,56,9.90
2017,04,12,02,57,9.90
2017,04,12,02,58,9.90
2017,04,12,02,59,9.90
2017,04,12,03,00,9.90
2017,04,12,03,01,9.90
2017,04,12,03,02,9.90
2017,04,12,03,03,9.90
2017,04,12,03,04,9.90
2017,04,12,03,05,9.90
2017,04,12,03,06,9.90
2017,04,12,03,07,9.90
2017,04,12,03,08,9.90
2017,04,12,03,09,9.90
2017,04,12,03,10,9.90
2017,04,12,03,11,9.90
2017,04,12,03,12,9.90
2017,04,12,03,13,9.90
2017,04,12,03,14,9.90
2017,04,12,03,15,9.90
2017,04,12,03,16,9.90
2017,04,12,03,17,9.90
2017,04,12,03,18,9.90
2017,04,12,03,19,9.90
2017,04,12,03,20,9.90
2017,04,12,03,21,9.90
2017,04,12,03,22,9.90
2017,04,12,03,23,9.90
2017,04,12,03,24,9.90
2017,04,12,03,25,9.90
2017,04,12,03,26,9.90
2017,04,12,03,27,9.90
2017,04,12,03,28,9.90
2017,04,12,03,29,9.90
2017,04,12,03,30,9.90
2017,04,12,03,31,9.90
2017,04,12,03,32,9.90
2017,04,12,03,33,9.80
2017,04,12,03,34,9.80
2017,04,12,03,35,9.70
2017,04,12,03,36,9.70
2017,04,12,03,37,9.70
2017,04,12,03,38,9.70
2017,04,12,03,39,9.70
2017,04,12,03,40,9.70
2017,04,12,03,41,9.70
2017,04,12,03,42,9.70
2017,04,12,03,43,9.70
2017,04,12,03,44,9.60
2017,04,12,03,45,9.60
2017,04,12,03,46,9.60
2017,04,12,03,47,9.60
2017,04,12,03,48,9.50
2017,04,12,03,49,9.50
2017,04,12,03,50,9.50
2017,04,12,03,51,9.50
2017,04,12,03,52,9.50
2017,04,12,03,53,9.40
2017,04,12,03,54,9.40
2017,04,12,03,55,9.40
2017,04,12,03,56,9.30
2017,04,12,03,57,9.30
2017,04,12,03,58,9.20
2017,04,12,03,59,9.20
2017,04,12,04,00,9.20
2017,04,12,04,01,9.20
2017,04,12,04,02,9.20
2017,04,12,04,03,9.10
2017,04,12,04,04,9.10
2017,04,12,04,05,9.00
2017,04,12,04,06,9.00
2017,04,12,04,07,9.00
2017,04,12,04,08,8.90
2017,04,12,04,09,8.90
2017,04,12,04,10,8.90
2017,04,12,04,11,8.90
2017,04,12,04,12,8.80
2017,04,12,04,13,8.80
2017,04,12,04,14,8.80
2017,04,12,04,15,8.70
2017,04,12,04,16,8.70
2017,04,12,04,17,8.70
2017,04,12,04,18,8.70
2017,04,12,04,19,8.70
2017,04,12,04,20,8.70
2017,04,12,04,21,8.70
2017,04,12,04,22,8.60
2017,04,12,04,23,8.60
2017,04,12,04,24,8.60
2017,04,12,04,25,8.60
2017,04,12,04,26,8.60
2017,04,12,04,27,8.50
2017,04,12,04,28,8.50
2017,04,12,04,29,8.50
2017,04,12,04,30,8.50
2017,04,12,04,31,8.40
2017,04,12,04,32,8.40
2017,04,12,04,33,8.40
2017,04,12,04,34,8.30
2017,04,12,04,35,8.30
2017,04,12,04,36,8.30
2017,04,12,04,37,8.30
2017,04,12,04,38,8.20
2017,04,12,04,39,8.20
2017,04,12,04,40,8.20
2017,04,12,04,41,8.20
2017,04,12,04,42,8.10
2017,04,12,04,43,8.10
2017,04,12,04,44,8.10
2017,04,12,04,45,8.10
2017,04,12,04,46,8.10
2017,04,12,04,47,8.00
2017,04,12,04,48,8.00
2017,04,12,04,49,7.90
2017,04,12,04,50,7.90
2017,04,12,04,51,7.90
2017,04,12,04,52,7.80
2017,04,12,04,53,7.80
2017,04,12,04,54,7.80
2017,04,12,04,55,7.80
2017,04,12,04,56,7.80
2017,04,12,04,57,7.80
2017,04,12,04,58,7.80
2017,04,12,04,59,7.80
2017,04,12,05,00,7.70
2017,04,12,05,01,7.70
2017,04,12,05,02,7.70
2017,04,12,05,03,7.70
2017,04,12,05,04,7.70
2017,04,12,05,05,7.70
2017,04,12,05,06,7.70
2017,04,12,05,07,7.70
2017,04,12,05,08,7.70
2017,04,12,05,09,7.70
2017,04,12,05,10,7.70
2017,04,12,05,11,7.70
2017,04,12,05,12,7.60
2017,04,12,05,13,7.60
2017,04,12,05,14,7.60
2017,04,12,05,15,7.60
2017,04,12,05,16,7.60
2017,04,12,05,17,7.60
2017,04,12,05,18,7.60
2017,04,12,05,19,7.60
2017,04,12,05,20,7.50
2017,04,12,05,21,7.50
2017,04,12,05,22,7.50
2017,04,12,05,23,7.50
2017,04,12,05,24,7.50
2017,04,12,05,25,7.50
2017,04,12,05,26,7.60
2017,04,12,05,27,7.60
2017,04,12,05,28,7.60
2017,04,12,05,29,7.60
2017,04,12,05,30,7.60
2017,04,12,05,31,7.50
2017,04,12,05,32,7.50
2017,04,12,05,33,7.50
2017,04,12,05,34,7.50
2017,04,12,05,35,7.50
2017,04,12,05,36,7.50
2017,04,12,05,37,7.50
2017,04,12,05,38,7.50
2017,04,12,05,39,7.50
2017,04,12,05,40,7.50
2017,04,12,05,41,7.50
2017,04,12,05,42,7.50
2017,04,12,05,43,7.50
2017,04,12,05,44,7.50
2017,04,12,05,45,7.50
2017,04,12,05,46,7.50
2017,04,12,05,47,7.50
2017,04,12,05,48,7.60
2017,04,12,05,49,7.50
2017,04,12,05,50,7.50
2017,04,12,05,51,7.50
2017,04,12,05,52,7.50
2017,04,12,05,53,7.50
2017,04,12,05,54,7.50
2017,04,12,05,55,7.50
2017,04,12,05,56,7.50
2017,04,12,05,57,7.50
2017,04,12,05,58,7.50
2017,04,12,05,59,7.50
2017,04,12,06,00,7.50
2017,04,12,06,01,7.50
2017,04,12,06,02,7.50
2017,04,12,06,03,7.50
2017,04,12,06,04,7.50
2017,04,12,06,05,7.50
2017,04,12,06,06,7.50
2017,04,12,06,07,7.50
2017,04,12,06,08,7.50
2017,04,12,06,09,7.50
2017,04,12,06,10,7.50
2017,04,12,06,11,7.50
2017,04,12,06,12,7.50
2017,04,12,06,13,7.50
2017,04,12,06,14,7.50
2017,04,12,06,15,7.50
2017,04,12,06,16,7.50
2017,04,12,06,17,7.50
2017,04,12,06,18,7.50
2017,04,12,06,19,7.50
2017,04,12,06,20,7.50
2017,04,12,06,21,7.60
2017,04,12,06,22,7.60
2017,04,12,06,23,7.60
2017,04,12,06,24,7.60
2017,04,12,06,25,7.60
2017,04,12,06,26,7.60
2017,04,12,06,27,7.60
2017,04,12,06,28,7.60
2017,04,12,06,29,7.60
2017,04,12,06,30,7.60
2017,04,12,06,31,7.60
2017,04,12,06,32,7.60
2017,04,12,06,33,7.60
2017,04,12,06,34,7.60
2017,04,12,06,35,7.60
2017,04,12,06,36,7.60
2017,04,12,06,37,7.60
2017,04,12,06,38,7.60
2017,04,12,06,39,7.60
2017,04,12,06,40,7.60
2017,04,12,06,41,7.60
2017,04,12,06,42,7.60
2017,04,12,06,43,7.60
2017,04,12,06,44,7.60
2017,04,12,06,45,7.60
2017,04,12,06,46,7.60
2017,04,12,06,47,7.60
2017,04,12,06,48,7.60
2017,04,12,06,49,7.60
2017,04,12,06,50,7.60
2017,04,12,06,51,7.60
2017,04,12,06,52,7.60
2017,04,12,06,53,7.60
2017,04,12,06,54,7.60
2017,04,12,06,55,7.60
2017,04,12,06,56,7.60
2017,04,12,06,57,7.60
2017,04,12,06,58,7.60
2017,04,12,06,59,7.60
2017,04,12,07,00,7.60
2017,04,12,07,01,7.60
2017,04,12,07,02,7.60
2017,04,12,07,03,7.60
2017,04,12,07,04,7.60
2017,04,12,07,05,7.60
2017,04,12,07,06,7.60
2017,04,12,07,07,7.60
2017,04,12,07,08,7.60
2017,04,12,07,09,7.60
2017,04,12,07,10,7.60
2017,04,12,07,11,7.60
2017,04,12,07,12,7.60
2017,04,12,07,13,7.60
2017,04,12,07,14,7.70
2017,04,12,07,15,7.70
2017,04,12,07,16,7.70
2017,04,12,07,17,7.70
2017,04,12,07,18,7.70
2017,04,12,07,19,7.70
2017,04,12,07,20,7.80
2017,04,12,07,21,7.80
2017,04,12,07,22,7.70
2017,04,12,07,23,7.70
2017,04,12,07,24,7.70
2017,04,12,07,25,7.80
2017,04,12,07,26,7.80
2017,04,12,07,27,7.80
2017,04,12,07,28,7.80
2017,04,12,07,29,7.80
2017,04,12,07,30,7.80
2017,04,12,07,31,7.80
2017,04,12,07,32,7.80
2017,04,12,07,33,7.80
2017,04,12,07,34,7.80
2017,04,12,07,35,7.80
2017,04,12,07,36,7.80
2017,04,12,07,37,7.80
2017,04,12,07,38,7.90
2017,04,12,07,39,7.90
2017,04,12,07,40,7.90
2017,04,12,07,41,7.90
2017,04,12,07,42,7.90
2017,04,12,07,43,7.90
2017,04,12,07,44,7.90
2017,04,12,07,45,7.90
2017,04,12,07,46,7.90
2017,04,12,07,47,7.90
2017,04,12,07,48,7.90
2017,04,12,07,49,7.90
2017,04,12,07,50,7.90
2017,04,12,07,51,7.90
2017,04,12,07,52,7.90
2017,04,12,07,53,7.90
2017,04,12,07,54,7.90
2017,04,12,07,55,7.90
2017,04,12,07,56,7.90
2017,04,12,07,57,8.00
2017,04,12,07,58,8.00
2017,04,12,07,59,8.00
2017,04,12,08,00,8.00
2017,04,12,08,01,8.00
2017,04,12,08,02,8.00
2017,04,12,08,03,8.00
2017,04,12,08,04,8.00
2017,04,12,08,05,8.00
2017,04,12,08,06,8.00
2017,04,12,08,07,8.00
2017,04,12,08,08,8.00
2017,04,12,08,09,8.00
2017,04,12,08,10,8.00
2017,04,12,08,11,8.00
2017,04,12,08,12,8.00
2017,04,12,08,13,8.00
2017,04,12,08,14,8.00
2017,04,12,08,15,8.00
2017,04,12,08,16,8.00
2017,04,12,08,17,8.00
2017,04,12,08,18,8.00
2017,04,12,08,19,8.00
2017,04,12,08,20,8.00
2017,04,12,08,21,8.00
2017,04,12,08,22,8.00
2017,04,12,08,23,8.00
2017,04,12,08,24,8.00
2017,04,12,08,25,8.00
2017,04,12,08,26,8.00
2017,04,12,08,27,8.00
2017,04,12,08,28,8.00
2017,04,12,08,29,8.00
2017,04,12,08,30,8.00
2017,04,12,08,31,8.00
2017,04,12,08,32,8.00
2017,04,12,08,33,8.00
2017,04,12,08,34,8.00
2017,04,12,08,35,8.00
2017,04,12,08,36,8.00
2017,04,12,08,37,8.00
2017,04,12,08,38,8.00
2017,04,12,08,39,8.00
2017,04,12,08,40,7.90
2017,04,12,08,41,7.90
2017,04,12,08,42,7.90
2017,04,12,08,43,7.90
2017,04,12,08,44,7.90
2017,04,12,08,45,7.90
2017,04,12,08,46,7.90
2017,04,12,08,47,7.90
2017,04,12,08,48,7.90
2017,04,12,08,49,7.90
2017,04,12,08,50,7.90
2017,04,12,08,51,8.00
2017,04,12,08,52,8.00
2017,04,12,08,53,8.00
2017,04,12,08,54,8.00
2017,04,12,08,55,8.00
2017,04,12,08,56,8.00
2017,04,12,08,57,8.00
2017,04,12,08,58,8.00
2017,04,12,08,59,8.00
2017,04,12,09,00,8.00
2017,04,12,09,01,8.00
2017,04,12,09,02,8.00
2017,04,12,09,03,8.00
2017,04,12,09,04,8.10
2017,04,12,09,05,8.10
2017,04,12,09,06,8.10
2017,04,12,09,07,8.10
2017,04,12,09,08,8.10
2017,04,12,09,09,8.10
2017,04,12,09,10,8.10
2017,04,12,09,11,8.00
2017,04,12,09,12,8.00
2017,04,12,09,13,8.00
2017,04,12,09,14,8.00
2017,04,12,09,15,8.00
2017,04,12,09,16,8.00
2017,04,12,09,17,8.00
2017,04,12,09,18,8.10
2017,04,12,09,19,8.10
2017,04,12,09,20,8.10
2017,04,12,09,21,8.10
2017,04,12,09,22,8.10
2017,04,12,09,23,8.10
2017,04,12,09,24,8.10
2017,04,12,09,25,8.10
2017,04,12,09,26,8.10
2017,04,12,09,27,8.10
2017,04,12,09,28,8.10
2017,04,12,09,29,8.10
2017,04,12,09,30,8.10
2017,04,12,09,31,8.10
2017,04,12,09,32,8.10
2017,04,12,09,33,8.10
2017,04,12,09,34,8.10
2017,04,12,09,35,8.10
2017,04,12,09,36,8.10
2017,04,12,09,37,8.10
2017,04,12,09,38,8.00
2017,04,12,09,39,8.00
2017,04,12,09,40,8.00
2017,04,12,09,41,8.00
2017,04,12,09,42,8.00
2017,04,12,09,43,8.10
2017,04,12,09,44,8.10
2017,04,12,09,45,8.10
2017,04,12,09,46,8.10
2017,04,12,09,47,8.10
2017,04,12,09,48,8.10
2017,04,12,09,49,8.10
2017,04,12,09,50,8.20
2017,04,12,09,51,8.20
2017,04,12,09,52,8.20
2017,04,12,09,53,8.20
2017,04,12,09,54,8.20
2017,04,12,09,55,8.20
2017,04,12,09,56,8.20
2017,04,12,09,57,8.20
2017,04,12,09,58,8.20
2017,04,12,09,59,8.20
2017,04,12,10,00,8.20
2017,04,12,10,01,8.20
2017,04,12,10,02,8.20
2017,04,12,10,03,8.20
2017,04,12,10,04,8.20
2017,04,12,10,05,8.20
2017,04,12,10,06,8.20
2017,04,12,10,07,8.20
2017,04,12,10,08,8.20
2017,04,12,10,09,8.20
2017,04,12,10,10,8.20
2017,04,12,10,11,8.20
2017,04,12,10,12,8.20
2017,04,12,10,13,8.20
2017,04,12,10,14,8.30
2017,04,12,10,15,8.30
2017,04,12,10,16,8.30
2017,04,12,10,17,8.30
2017,04,12,10,18,8.30
2017,04,12,10,19,8.30
2017,04,12,10,20,8.30
2017,04,12,10,21,8.30
2017,04,12,10,22,8.30
2017,04,12,10,23,8.30
2017,04,12,10,24,8.30
2017,04,12,10,25,8.30
2017,04,12,10,26,8.30
2017,04,12,10,27,8.30
2017,04,12,10,28,8.30
2017,04,12,10,29,8.30
2017,04,12,10,30,8.40
2017,04,12,10,31,8.40
2017,04,12,10,32,8.40
2017,04,12,10,33,8.40
2017,04,12,10,34,8.40
2017,04,12,10,35,8.40
2017,04,12,10,36,8.40
2017,04,12,10,37,8.40
2017,04,12,10,38,8.40
2017,04,12,10,39,8.40
2017,04,12,10,40,8.40
2017,04,12,10,41,8.40
2017,04,12,10,42,8.40
2017,04,12,10,43,8.40
2017,04,12,10,44,8.40
2017,04,12,10,45,8.40
2017,04,12,10,46,8.50
2017,04,12,10,47,8.50
2017,04,12,10,48,8.50
2017,04,12,10,49,8.50
2017,04,12,10,50,8.50
2017,04,12,10,51,8.60
2017,04,12,10,52,8.60
2017,04,12,10,53,8.60
2017,04,12,10,54,8.60
2017,04,12,10,55,8.60
2017,04,12,10,56,8.60
2017,04,12,10,57,8.60
2017,04,12,10,58,8.60
2017,04,12,10,59,8.60
2017,04,12,11,00,8.70
2017,04,12,11,01,8.70
2017,04,12,11,02,8.70
2017,04,12,11,03,8.70
2017,04,12,11,04,8.70
2017,04,12,11,05,8.70
2017,04,12,11,06,8.70
2017,04,12,11,07,8.70
2017,04,12,11,08,8.70
2017,04,12,11,09,8.70
2017,04,12,11,10,8.70
2017,04,12,11,11,8.70
2017,04,12,11,12,8.70
2017,04,12,11,13,8.70
2017,04,12,11,14,8.80
2017,04,12,11,15,8.80
2017,04,12,11,16,8.80
2017,04,12,11,17,8.80
2017,04,12,11,18,8.80
2017,04,12,11,19,8.80
2017,04,12,11,20,8.80
2017,04,12,11,21,8.80
2017,04,12,11,22,8.80
2017,04,12,11,23,8.80
2017,04,12,11,24,8.90
2017,04,12,11,25,8.90
2017,04,12,11,26,8.90
2017,04,12,11,27,8.90
2017,04,12,11,28,9.00
2017,04,12,11,29,9.00
2017,04,12,11,30,9.00
2017,04,12,11,31,9.00
2017,04,12,11,32,9.00
2017,04,12,11,33,9.10
2017,04,12,11,34,9.10
2017,04,12,11,35,9.20
2017,04,12,11,36,9.20
2017,04,12,11,37,9.20
2017,04,12,11,38,9.20
2017,04,12,11,39,9.20
2017,04,12,11,40,9.20
2017,04,12,11,41,9.20
2017,04,12,11,42,9.20
2017,04,12,11,43,9.20
2017,04,12,11,44,9.20
2017,04,12,11,45,9.20
2017,04,12,11,46,9.20
2017,04,12,11,47,9.20
2017,04,12,11,48,9.20
2017,04,12,11,49,9.30
2017,04,12,11,50,9.30
2017,04,12,11,51,9.30
2017,04,12,11,52,9.30
2017,04,12,11,53,9.30
2017,04,12,11,54,9.40
2017,04,12,11,55,9.40
2017,04,12,11,56,9.40
2017,04,12,11,57,9.50
2017,04,12,11,58,9.50
2017,04,12,11,59,9.40
2017,04,12,12,00,9.40
2017,04,12,12,01,9.40
2017,04,12,12,02,9.50
2017,04,12,12,03,9.50
2017,04,12,12,04,9.60
2017,04,12,12,05,9.60
2017,04,12,12,06,9.60
2017,04,12,12,07,9.60
2017,04,12,12,08,9.60
2017,04,12,12,09,9.70
2017,04,12,12,10,9.70
2017,04,12,12,11,9.80
2017,04,12,12,12,9.80
2017,04,12,12,13,9.90
2017,04,12,12,14,10.00
2017,04,12,12,15,10.10
2017,04,12,12,16,10.10
2017,04,12,12,17,10.10
2017,04,12,12,18,10.10
2017,04,12,12,19,10.20
2017,04,12,12,20,10.30
2017,04,12,12,21,10.40
2017,04,12,12,22,10.40
2017,04,12,12,23,10.40
2017,04,12,12,24,10.40
2017,04,12,12,25,10.50
2017,04,12,12,26,10.60
2017,04,12,12,27,10.60
2017,04,12,12,28,10.60
2017,04,12,12,29,10.70
2017,04,12,12,30,10.70
2017,04,12,12,31,10.70
2017,04,12,12,32,10.70
2017,04,12,12,33,10.70
2017,04,12,12,34,10.70
2017,04,12,12,35,10.80
2017,04,12,12,36,10.90
2017,04,12,12,37,10.90
2017,04,12,12,38,10.90
2017,04,12,12,39,11.10
2017,04,12,12,40,11.10
2017,04,12,12,41,11.10
2017,04,12,12,42,11.10
2017,04,12,12,43,11.10
2017,04,12,12,44,10.90
2017,04,12,12,45,10.90
2017,04,12,12,46,10.90
2017,04,12,12,47,10.90
2017,04,12,12,48,11.00
2017,04,12,12,49,11.00
2017,04,12,12,50,11.10
2017,04,12,12,51,11.00
2017,04,12,12,52,10.90
2017,04,12,12,53,10.90
2017,04,12,12,54,11.00
2017,04,12,12,55,11.10
2017,04,12,12,56,11.20
2017,04,12,12,57,11.20
2017,04,12,12,58,11.30
2017,04,12,12,59,11.30
2017,04,12,13,00,11.40
2017,04,12,13,01,11.40
2017,04,12,13,02,11.40
2017,04,12,13,03,11.40
2017,04,12,13,04,11.30
2017,04,12,13,05,11.30
2017,04,12,13,06,11.30
2017,04,12,13,07,11.30
2017,04,12,13,08,11.30
2017,04,12,13,09,11.30
2017,04,12,13,10,11.30
2017,04,12,13,11,11.30
2017,04,12,13,12,11.30
2017,04,12,13,13,11.40
2017,04,12,13,14,11.40
2017,04,12,13,15,11.40
2017,04,12,13,16,11.50
2017,04,12,13,17,11.60
2017,04,12,13,18,11.60
2017,04,12,13,19,11.70
2017,04,12,13,20,11.70
2017,04,12,13,21,11.70
2017,04,12,13,22,11.70
2017,04,12,13,23,11.70
2017,04,12,13,24,11.70
2017,04,12,13,25,11.80
2017,04,12,13,26,11.80
2017,04,12,13,27,11.80
2017,04,12,13,28,11.80
2017,04,12,13,29,11.80
2017,04,12,13,30,11.90
2017,04,12,13,31,11.90
2017,04,12,13,32,12.00
2017,04,12,13,33,12.10
2017,04,12,13,34,12.20
2017,04,12,13,35,12.20
2017,04,12,13,36,12.30
2017,04,12,13,37,12.30
2017,04,12,13,38,12.30
2017,04,12,13,39,12.40
2017,04,12,13,40,12.40
2017,04,12,13,41,12.50
2017,04,12,13,42,12.50
2017,04,12,13,43,12.60
2017,04,12,13,44,12.70
2017,04,12,13,45,12.60
2017,04,12,13,46,12.50
2017,04,12,13,47,12.40
2017,04,12,13,48,12.40
2017,04,12,13,49,12.40
2017,04,12,13,50,12.50
2017,04,12,13,51,12.40
2017,04,12,13,52,12.40
2017,04,12,13,53,12.40
2017,04,12,13,54,12.50
2017,04,12,13,55,12.50
2017,04,12,13,56,12.50
2017,04,12,13,57,12.50
2017,04,12,13,58,12.40
2017,04,12,13,59,12.50
2017,04,12,14,00,12.50
2017,04,12,14,01,12.40
2017,04,12,14,02,12.50
2017,04,12,14,03,12.60
2017,04,12,14,04,12.60
2017,04,12,14,05,12.60
2017,04,12,14,06,12.60
2017,04,12,14,07,12.60
2017,04,12,14,08,12.60
2017,04,12,14,09,12.60
2017,04,12,14,10,12.60
2017,04,12,14,11,12.60
2017,04,12,14,12,12.70
2017,04,12,14,13,12.80
2017,04,12,14,14,12.80
2017,04,12,14,15,12.80
2017,04,12,14,16,12.80
2017,04,12,14,17,12.80
2017,04,12,14,18,12.80
2017,04,12,14,19,12.70
2017,04,12,14,20,12.70
2017,04,12,14,21,12.60
2017,04,12,14,22,12.50
2017,04,12,14,23,12.50
2017,04,12,14,24,12.40
2017,04,12,14,25,12.30
2017,04,12,14,26,12.30
2017,04,12,14,27,12.30
2017,04,12,14,28,12.30
2017,04,12,14,29,12.30
2017,04,12,14,30,12.40
2017,04,12,14,31,12.40
2017,04,12,14,32,12.50
2017,04,12,14,33,12.50
2017,04,12,14,34,12.50
2017,04,12,14,35,12.50
2017,04,12,14,36,12.50
2017,04,12,14,37,12.50
2017,04,12,14,38,12.40
2017,04,12,14,39,12.40
2017,04,12,14,40,12.40
2017,04,12,14,41,12.30
2017,04,12,14,42,12.30
2017,04,12,14,43,12.30
2017,04,12,14,44,12.40
2017,04,12,14,45,12.40
2017,04,12,14,46,12.50
2017,04,12,14,47,12.50
2017,04,12,14,48,12.50
2017,04,12,14,49,12.50
2017,04,12,14,50,12.50
2017,04,12,14,51,12.50
2017,04,12,14,52,12.50
2017,04,12,14,53,12.50
2017,04,12,14,54,12.50
2017,04,12,14,55,12.50
2017,04,12,14,56,12.60
2017,04,12,14,57,12.60
2017,04,12,14,58,12.70
2017,04,12,14,59,12.70
2017,04,12,15,00,12.80
2017,04,12,15,01,12.80
2017,04,12,15,02,12.80
2017,04,12,15,03,12.80
2017,04,12,15,04,12.80
2017,04,12,15,05,12.80
2017,04,12,15,06,12.80
2017,04,12,15,07,12.80
2017,04,12,15,08,12.80
2017,04,12,15,09,12.80
2017,04,12,15,10,12.80
2017,04,12,15,11,12.80
2017,04,12,15,12,12.90
2017,04,12,15,13,13.00
2017,04,12,15,14,13.00
2017,04,12,15,15,13.10
2017,04,12,15,16,13.20
2017,04,12,15,17,13.20
2017,04,12,15,18,13.30
2017,04,12,15,19,13.30
2017,04,12,15,20,13.40
2017,04,12,15,21,13.40
2017,04,12,15,22,13.40
2017,04,12,15,23,13.40
2017,04,12,15,24,13.50
2017,04,12,15,25,13.60
2017,04,12,15,26,13.60
2017,04,12,15,27,13.60
2017,04,12,15,28,13.60
2017,04,12,15,29,13.50
2017,04,12,15,30,13.50
2017,04,12,15,31,13.50
2017,04,12,15,32,13.50
2017,04,12,15,33,13.50
2017,04,12,15,34,13.50
2017,04,12,15,35,13.50
2017,04,12,15,36,13.50
2017,04,12,15,37,13.50
2017,04,12,15,38,13.40
2017,04,12,15,39,13.30
2017,04,12,15,40,13.30
2017,04,12,15,41,13.30
2017,04,12,15,42,13.30
2017,04,12,15,43,13.20
2017,04,12,15,44,13.20
2017,04,12,15,45,13.20
2017,04,12,15,46,13.30
2017,04,12,15,47,13.30
2017,04,12,15,48,13.30
2017,04,12,15,49,13.40
2017,04,12,15,50,13.30
2017,04,12,15,51,13.30
2017,04,12,15,52,13.30
2017,04,12,15,53,13.30
2017,04,12,15,54,13.40
2017,04,12,15,55,13.50
2017,04,12,15,56,13.50
2017,04,12,15,57,13.50
2017,04,12,15,58,13.60
2017,04,12,15,59,13.60
2017,04,12,16,00,13.50
2017,04,12,16,01,13.60
2017,04,12,16,02,13.50
2017,04,12,16,03,13.50
2017,04,12,16,04,13.50
2017,04,12,16,05,13.50
2017,04,12,16,06,13.50
2017,04,12,16,07,13.50
2017,04,12,16,08,13.60
2017,04,12,16,09,13.60
2017,04,12,16,10,13.60
2017,04,12,16,11,13.60
2017,04,12,16,12,13.60
2017,04,12,16,13,13.50
2017,04,12,16,14,13.50
2017,04,12,16,15,13.40
2017,04,12,16,16,13.40
2017,04,12,16,17,13.40
2017,04,12,16,18,13.40
2017,04,12,16,19,13.40
2017,04,12,16,20,13.40
2017,04,12,16,21,13.30
2017,04,12,16,22,13.30
2017,04,12,16,23,13.20
2017,04,12,16,24,13.10
2017,04,12,16,25,13.10
2017,04,12,16,26,13.00
2017,04,12,16,27,13.00
2017,04,12,16,28,13.00
2017,04,12,16,29,13.10
2017,04,12,16,30,13.10
2017,04,12,16,31,13.10
2017,04,12,16,32,13.10
2017,04,12,16,33,13.10
2017,04,12,16,34,13.00
2017,04,12,16,35,13.00
2017,04,12,16,36,13.00
2017,04,12,16,37,13.00
2017,04,12,16,38,13.00
2017,04,12,16,39,13.00
2017,04,12,16,40,13.00
2017,04,12,16,41,13.00
2017,04,12,16,42,13.00
2017,04,12,16,43,13.00
2017,04,12,16,44,13.00
2017,04,12,16,45,13.00
2017,04,12,16,46,13.00
2017,04,12,16,47,12.90
2017,04,12,16,48,12.90
2017,04,12,16,49,12.90
2017,04,12,16,50,12.90
2017,04,12,16,51,12.90
2017,04,12,16,52,12.90
2017,04,12,16,53,12.90
2017,04,12,16,54,13.00
2017,04,12,16,55,13.00
2017,04,12,16,56,13.00
2017,04,12,16,57,13.00
2017,04,12,16,58,13.00
2017,04,12,16,59,13.00
2017,04,12,17,00,13.00
2017,04,12,17,01,13.00
2017,04,12,17,02,13.00
2017,04,12,17,03,13.00
2017,04,12,17,04,13.00
2017,04,12,17,05,13.00
2017,04,12,17,06,12.90
2017,04,12,17,07,12.90
2017,04,12,17,08,13.00
2017,04,12,17,09,12.90
2017,04,12,17,10,12.90
2017,04,12,17,11,13.00
2017,04,12,17,12,13.00
2017,04,12,17,13,13.00
2017,04,12,17,14,13.00
2017,04,12,17,15,13.00
2017,04,12,17,16,13.00
2017,04,12,17,17,13.00
2017,04,12,17,18,13.00
2017,04,12,17,19,13.00
2017,04,12,17,20,13.00
2017,04,12,17,21,13.00
2017,04,12,17,22,13.00
2017,04,12,17,23,13.00
2017,04,12,17,24,13.00
2017,04,12,17,25,13.10
2017,04,12,17,26,13.10
2017,04,12,17,27,13.10
2017,04,12,17,28,13.10
2017,04,12,17,29,13.10
2017,04,12,17,30,13.00
2017,04,12,17,31,13.00
2017,04,12,17,32,13.00
2017,04,12,17,33,12.90
2017,04,12,17,34,12.90
2017,04,12,17,35,12.90
2017,04,12,17,36,12.90
2017,04,12,17,37,12.90
2017,04,12,17,38,12.90
2017,04,12,17,39,12.90
2017,04,12,17,40,12.90
2017,04,12,17,41,12.90
2017,04,12,17,42,12.90
2017,04,12,17,43,12.90
2017,04,12,17,44,12.90